Location: Saint-Palais-sur-Mer
(45.6429°N, 1.0859°W)
Time: 16:00:30
(UTC+01:00)

S-56A Canister/Altair - Pass Details

Date: 11 February 2026
Orbit: 633 x 2484 km, 38.9° (Epoch: 16 March)

Event Time Altitude Azimuth Distance (km) Brightness Sun altitude
Exits shadow 03:51:46 45° 121° (ESE) 2,329 9.9 -44.9°
Drops below altitude 10° 04:00:53 10° 93° (E) 4,714 12.0 -43.5°
Sets 04:05:09 0° 90° (E) 5,910 12.7 -42.9°
